contact:dominique.lefevre@mio.osupytheas.fr, maurice.libes@osupytheas.fr, didier.mallarino@osupytheas.fr
Project:EMSO http://www.emso-fr.org/EMSO-France
Depth: 2436.0 m
Title:EMSO Ligure Ouest : Data MII capteur MICROCAT
DateTime_Computer,Latitude,Longitude,Temperature,Conductivity,Pressure,DateTime_Instrument
DateTime_Computer,Latitude,Longitude,degC,S m-1,dbar,DateTime_Instrument
2021-05-17T00:01:50Z,42.805,6.029,13.2983,4.60003,2470.646,2021-5-17T02:03:01Z
2021-05-17T00:04:53Z,42.805,6.029,13.2989,4.60003,2470.661,2021-5-17T02:06:05Z
2021-05-17T00:07:57Z,42.805,6.029,13.2986,4.60007,2470.684,2021-5-17T02:09:08Z
2021-05-17T00:11:00Z,42.805,6.029,13.2983,4.60003,2470.637,2021-5-17T02:12:11Z
2021-05-17T00:14:03Z,42.805,6.029,13.2989,4.60002,2470.646,2021-5-17T02:15:14Z
2021-05-17T00:17:06Z,42.805,6.029,13.2987,4.60004,2470.633,2021-5-17T02:18:17Z
2021-05-17T00:20:09Z,42.805,6.029,13.2987,4.59999,2470.624,2021-5-17T02:21:20Z
2021-05-17T00:23:12Z,42.805,6.029,13.2987,4.60007,2470.624,2021-5-17T02:24:23Z
2021-05-17T00:26:15Z,42.805,6.029,13.2982,4.59999,2470.684,2021-5-17T02:27:26Z
2021-05-17T00:29:18Z,42.805,6.029,13.2988,4.60002,2470.646,2021-5-17T02:30:30Z
2021-05-17T00:32:22Z,42.805,6.029,13.2987,4.59995,2470.6,2021-5-17T02:33:33Z
2021-05-17T00:35:25Z,42.805,6.029,13.2986,4.60004,2470.661,2021-5-17T02:36:36Z
2021-05-17T00:38:28Z,42.805,6.029,13.2990,4.60002,2470.646,2021-5-17T02:39:39Z
2021-05-17T00:41:31Z,42.805,6.029,13.2983,4.60004,2470.6,2021-5-17T02:42:42Z
2021-05-17T00:44:34Z,42.805,6.029,13.2982,4.60009,2470.624,2021-5-17T02:45:45Z
2021-05-17T00:47:37Z,42.805,6.029,13.2991,4.60005,2470.637,2021-5-17T02:48:48Z
2021-05-17T00:50:40Z,42.805,6.029,13.2984,4.60002,2470.577,2021-5-17T02:51:51Z
2021-05-17T00:53:43Z,42.805,6.029,13.2984,4.60002,2470.624,2021-5-17T02:54:55Z
2021-05-17T00:56:46Z,42.805,6.029,13.2986,4.59999,2470.614,2021-5-17T02:57:58Z
2021-05-17T00:59:50Z,42.805,6.029,13.2988,4.59999,2470.661,2021-5-17T03:01:01Z
2021-05-17T01:02:53Z,42.805,6.029,13.2990,4.60005,2470.646,2021-5-17T03:04:04Z
2021-05-17T01:05:56Z,42.805,6.029,13.2983,4.60001,2470.624,2021-5-17T03:07:07Z
2021-05-17T01:08:59Z,42.805,6.029,13.2984,4.59999,2470.624,2021-5-17T03:10:10Z
2021-05-17T01:12:02Z,42.805,6.029,13.2983,4.59999,2470.661,2021-5-17T03:13:13Z
2021-05-17T01:15:05Z,42.805,6.029,13.2988,4.60006,2470.624,2021-5-17T03:16:16Z
2021-05-17T01:18:08Z,42.805,6.029,13.2987,4.60002,2470.67,2021-5-17T03:19:20Z
2021-05-17T01:21:11Z,42.805,6.029,13.2990,4.60003,2470.577,2021-5-17T03:22:23Z
2021-05-17T01:24:15Z,42.805,6.029,13.2986,4.59993,2470.624,2021-5-17T03:25:26Z
2021-05-17T01:27:18Z,42.805,6.029,13.2986,4.60007,2470.637,2021-5-17T03:28:29Z
2021-05-17T01:30:21Z,42.805,6.029,13.2990,4.60003,2470.6,2021-5-17T03:31:32Z
2021-05-17T01:33:24Z,42.805,6.029,13.2986,4.59994,2470.624,2021-5-17T03:34:35Z
2021-05-17T01:36:27Z,42.805,6.029,13.2991,4.59999,2470.614,2021-5-17T03:37:38Z
2021-05-17T01:39:30Z,42.805,6.029,13.2983,4.59995,2470.624,2021-5-17T03:40:41Z
2021-05-17T01:42:33Z,42.805,6.029,13.2991,4.59996,2470.577,2021-5-17T03:43:44Z
2021-05-17T01:45:36Z,42.805,6.029,13.2993,4.60004,2470.624,2021-5-17T03:46:48Z
2021-05-17T01:48:40Z,42.805,6.029,13.2990,4.60002,2470.577,2021-5-17T03:49:51Z
2021-05-17T01:51:43Z,42.805,6.029,13.2989,4.59999,2470.624,2021-5-17T03:52:54Z
2021-05-17T01:54:46Z,42.805,6.029,13.2985,4.59998,2470.6,2021-5-17T03:55:57Z
2021-05-17T01:57:49Z,42.805,6.029,13.2982,4.59998,2470.6,2021-5-17T03:59:00Z
2021-05-17T02:00:52Z,42.805,6.029,13.2991,4.59998,2470.614,2021-5-17T04:02:03Z
2021-05-17T02:03:55Z,42.805,6.029,13.2987,4.59994,2470.637,2021-5-17T04:05:06Z
2021-05-17T02:06:58Z,42.805,6.029,13.2984,4.60001,2470.6,2021-5-17T04:08:09Z
2021-05-17T02:10:01Z,42.805,6.029,13.2986,4.59999,2470.624,2021-5-17T04:11:13Z
2021-05-17T02:13:05Z,42.805,6.029,13.2986,4.59999,2470.577,2021-5-17T04:14:16Z
2021-05-17T02:16:08Z,42.805,6.029,13.2987,4.60001,2470.624,2021-5-17T04:17:19Z
2021-05-17T02:19:11Z,42.805,6.029,13.2985,4.60002,2470.577,2021-5-17T04:20:22Z
2021-05-17T02:22:14Z,42.805,6.029,13.2990,4.60006,2470.614,2021-5-17T04:23:25Z
2021-05-17T02:25:17Z,42.805,6.029,13.2987,4.59999,2470.591,2021-5-17T04:26:28Z
2021-05-17T02:28:20Z,42.805,6.029,13.2982,4.60000,2470.553,2021-5-17T04:29:31Z
2021-05-17T02:31:23Z,42.805,6.029,13.2983,4.60007,2470.6,2021-5-17T04:32:34Z
2021-05-17T02:34:26Z,42.805,6.029,13.2988,4.60009,2470.577,2021-5-17T04:35:38Z
2021-05-17T02:37:30Z,42.805,6.029,13.2981,4.60003,2470.553,2021-5-17T04:38:41Z
2021-05-17T02:40:33Z,42.805,6.029,13.2982,4.59999,2470.6,2021-5-17T04:41:44Z
2021-05-17T02:43:36Z,42.805,6.029,13.2986,4.59995,2470.591,2021-5-17T04:44:47Z
2021-05-17T02:46:39Z,42.805,6.029,13.2989,4.59997,2470.6,2021-5-17T04:47:50Z
2021-05-17T02:49:42Z,42.805,6.029,13.2985,4.59994,2470.614,2021-5-17T04:50:53Z
2021-05-17T02:52:45Z,42.805,6.029,13.2986,4.59999,2470.591,2021-5-17T04:53:56Z
2021-05-17T02:55:48Z,42.805,6.029,13.2986,4.59995,2470.577,2021-5-17T04:56:59Z
2021-05-17T02:58:51Z,42.805,6.029,13.2990,4.59999,2470.577,2021-5-17T05:00:03Z
2021-05-17T03:01:55Z,42.805,6.029,13.2986,4.60008,2470.6,2021-5-17T05:03:06Z
2021-05-17T03:04:58Z,42.805,6.029,13.2991,4.59990,2470.614,2021-5-17T05:06:09Z
2021-05-17T03:08:01Z,42.805,6.029,13.2988,4.60003,2470.6,2021-5-17T05:09:12Z
2021-05-17T03:11:04Z,42.805,6.029,13.2988,4.59997,2470.6,2021-5-17T05:12:15Z
2021-05-17T03:14:07Z,42.805,6.029,13.2989,4.60000,2470.6,2021-5-17T05:15:18Z
2021-05-17T03:17:10Z,42.805,6.029,13.2985,4.60005,2470.591,2021-5-17T05:18:21Z
2021-05-17T03:20:13Z,42.805,6.029,13.2988,4.59997,2470.577,2021-5-17T05:21:24Z
2021-05-17T03:23:16Z,42.805,6.029,13.2986,4.60001,2470.614,2021-5-17T05:24:28Z
2021-05-17T03:26:19Z,42.805,6.029,13.2989,4.59998,2470.539,2021-5-17T05:27:31Z
2021-05-17T03:29:23Z,42.805,6.029,13.2987,4.60005,2470.6,2021-5-17T05:30:34Z
2021-05-17T03:32:26Z,42.805,6.029,13.2985,4.60000,2470.577,2021-5-17T05:33:37Z
2021-05-17T03:35:29Z,42.805,6.029,13.2987,4.60006,2470.591,2021-5-17T05:36:40Z
2021-05-17T03:38:32Z,42.805,6.029,13.2986,4.60002,2470.577,2021-5-17T05:39:43Z
2021-05-17T03:41:35Z,42.805,6.029,13.2982,4.59997,2470.567,2021-5-17T05:42:46Z
2021-05-17T03:44:38Z,42.805,6.029,13.2986,4.60002,2470.6,2021-5-17T05:45:49Z
2021-05-17T03:47:41Z,42.805,6.029,13.2985,4.60001,2470.567,2021-5-17T05:48:53Z
2021-05-17T03:50:44Z,42.805,6.029,13.2985,4.60003,2470.567,2021-5-17T05:51:56Z
2021-05-17T03:53:48Z,42.805,6.029,13.2990,4.60001,2470.591,2021-5-17T05:54:59Z
2021-05-17T03:56:51Z,42.805,6.029,13.2985,4.60003,2470.567,2021-5-17T05:58:02Z
2021-05-17T03:59:54Z,42.805,6.029,13.2985,4.60006,2470.577,2021-5-17T06:01:05Z
2021-05-17T04:02:57Z,42.805,6.029,13.2986,4.60005,2470.567,2021-5-17T06:04:08Z
2021-05-17T04:06:00Z,42.805,6.029,13.2986,4.60001,2470.567,2021-5-17T06:07:11Z
2021-05-17T04:09:03Z,42.805,6.029,13.2983,4.59998,2470.567,2021-5-17T06:10:14Z
2021-05-17T04:12:06Z,42.805,6.029,13.2988,4.60004,2470.553,2021-5-17T06:13:18Z
2021-05-17T04:15:09Z,42.805,6.029,13.2985,4.59996,2470.577,2021-5-17T06:16:21Z
2021-05-17T04:18:13Z,42.805,6.029,13.2990,4.60001,2470.614,2021-5-17T06:19:24Z
2021-05-17T04:21:16Z,42.805,6.029,13.2985,4.59995,2470.591,2021-5-17T06:22:27Z
2021-05-17T04:24:19Z,42.805,6.029,13.2985,4.60007,2470.577,2021-5-17T06:25:30Z
2021-05-17T04:27:22Z,42.805,6.029,13.2986,4.60003,2470.553,2021-5-17T06:28:33Z
2021-05-17T04:30:25Z,42.805,6.029,13.2986,4.60002,2470.567,2021-5-17T06:31:36Z
2021-05-17T04:33:28Z,42.805,6.029,13.2985,4.60006,2470.53,2021-5-17T06:34:39Z
2021-05-17T04:36:31Z,42.805,6.029,13.2983,4.59991,2470.53,2021-5-17T06:37:42Z
2021-05-17T04:39:34Z,42.805,6.029,13.2983,4.59996,2470.591,2021-5-17T06:40:46Z
2021-05-17T04:42:38Z,42.805,6.029,13.2984,4.59996,2470.567,2021-5-17T06:43:49Z
2021-05-17T04:45:41Z,42.805,6.029,13.2986,4.60002,2470.577,2021-5-17T06:46:52Z
2021-05-17T04:48:44Z,42.805,6.029,13.2986,4.60006,2470.553,2021-5-17T06:49:55Z
2021-05-17T04:51:47Z,42.805,6.029,13.2983,4.60003,2470.577,2021-5-17T06:52:58Z
2021-05-17T04:54:50Z,42.805,6.029,13.2991,4.60010,2470.577,2021-5-17T06:56:01Z
2021-05-17T04:57:53Z,42.805,6.029,13.2986,4.59996,2470.507,2021-5-17T06:59:04Z
2021-05-17T05:00:56Z,42.805,6.029,13.2986,4.59994,2470.567,2021-5-17T07:02:07Z
2021-05-17T05:03:59Z,42.805,6.029,13.2987,4.60000,2470.553,2021-5-17T07:05:11Z
2021-05-17T05:07:03Z,42.805,6.029,13.2980,4.59994,2470.577,2021-5-17T07:08:14Z
2021-05-17T05:10:06Z,42.805,6.029,13.2986,4.59995,2470.53,2021-5-17T07:11:17Z
2021-05-17T05:13:09Z,42.805,6.029,13.2987,4.59996,2470.553,2021-5-17T07:14:20Z
2021-05-17T05:16:12Z,42.805,6.029,13.2986,4.59999,2470.544,2021-5-17T07:17:23Z
2021-05-17T05:19:15Z,42.805,6.029,13.2985,4.59999,2470.553,2021-5-17T07:20:26Z
2021-05-17T05:22:18Z,42.805,6.029,13.2985,4.60000,2470.567,2021-5-17T07:23:29Z
2021-05-17T05:25:21Z,42.805,6.029,13.2986,4.59996,2470.53,2021-5-17T07:26:32Z
2021-05-17T05:28:24Z,42.805,6.029,13.2986,4.59999,2470.577,2021-5-17T07:29:36Z
2021-05-17T05:31:28Z,42.805,6.029,13.2981,4.60000,2470.591,2021-5-17T07:32:39Z
2021-05-17T05:34:31Z,42.805,6.029,13.2988,4.60002,2470.493,2021-5-17T07:35:42Z
2021-05-17T05:37:34Z,42.805,6.029,13.2990,4.60006,2470.53,2021-5-17T07:38:45Z
2021-05-17T05:40:37Z,42.805,6.029,13.2988,4.60000,2470.553,2021-5-17T07:41:48Z
2021-05-17T05:43:40Z,42.805,6.029,13.2985,4.59996,2470.553,2021-5-17T07:44:51Z
2021-05-17T05:46:43Z,42.805,6.029,13.2989,4.60003,2470.567,2021-5-17T07:47:54Z
2021-05-17T05:49:46Z,42.805,6.029,13.2986,4.59996,2470.553,2021-5-17T07:50:57Z
2021-05-17T05:52:49Z,42.805,6.029,13.2990,4.60002,2470.53,2021-5-17T07:54:01Z
2021-05-17T05:55:53Z,42.805,6.029,13.2983,4.59996,2470.591,2021-5-17T07:57:04Z
2021-05-17T05:58:56Z,42.805,6.029,13.2988,4.60008,2470.53,2021-5-17T08:00:07Z
2021-05-17T06:01:59Z,42.805,6.029,13.2985,4.60004,2470.544,2021-5-17T08:03:10Z
2021-05-17T06:05:02Z,42.805,6.029,13.2989,4.60005,2470.567,2021-5-17T08:06:13Z
2021-05-17T06:08:05Z,42.805,6.029,13.2982,4.60006,2470.544,2021-5-17T08:09:16Z
2021-05-17T06:11:08Z,42.805,6.029,13.2985,4.59997,2470.53,2021-5-17T08:12:19Z
2021-05-17T06:14:11Z,42.805,6.029,13.2986,4.60000,2470.544,2021-5-17T08:15:22Z
2021-05-17T06:17:14Z,42.805,6.029,13.2985,4.59997,2470.567,2021-5-17T08:18:26Z
2021-05-17T06:20:18Z,42.805,6.029,13.2984,4.59998,2470.53,2021-5-17T08:21:29Z
2021-05-17T06:23:21Z,42.805,6.029,13.2987,4.59996,2470.507,2021-5-17T08:24:32Z
2021-05-17T06:26:24Z,42.805,6.029,13.2985,4.60009,2470.591,2021-5-17T08:27:35Z
2021-05-17T06:29:27Z,42.805,6.029,13.2986,4.60000,2470.53,2021-5-17T08:30:38Z
2021-05-17T06:32:30Z,42.805,6.029,13.2987,4.60006,2470.553,2021-5-17T08:33:41Z
2021-05-17T06:35:33Z,42.805,6.029,13.2991,4.59999,2470.553,2021-5-17T08:36:44Z
2021-05-17T06:38:36Z,42.805,6.029,13.2983,4.59995,2470.553,2021-5-17T08:39:47Z
2021-05-17T06:41:39Z,42.805,6.029,13.2990,4.60001,2470.53,2021-5-17T08:42:51Z
2021-05-17T06:44:43Z,42.805,6.029,13.2985,4.59995,2470.567,2021-5-17T08:45:54Z
2021-05-17T06:47:46Z,42.805,6.029,13.2982,4.60002,2470.553,2021-5-17T08:48:57Z
2021-05-17T06:50:49Z,42.805,6.029,13.2984,4.60001,2470.567,2021-5-17T08:52:00Z
2021-05-17T06:53:52Z,42.805,6.029,13.2986,4.60001,2470.553,2021-5-17T08:55:03Z
2021-05-17T06:56:55Z,42.805,6.029,13.2987,4.60003,2470.567,2021-5-17T08:58:06Z
2021-05-17T06:59:58Z,42.805,6.029,13.2991,4.60007,2470.577,2021-5-17T09:01:09Z
2021-05-17T07:03:01Z,42.805,6.029,13.2990,4.60008,2470.577,2021-5-17T09:04:12Z
2021-05-17T07:06:04Z,42.805,6.029,13.2990,4.60009,2470.553,2021-5-17T09:07:16Z
2021-05-17T07:09:07Z,42.805,6.029,13.2989,4.60006,2470.567,2021-5-17T09:10:19Z
2021-05-17T07:12:11Z,42.805,6.029,13.2990,4.60026,2470.567,2021-5-17T09:13:22Z
2021-05-17T07:15:14Z,42.805,6.029,13.2990,4.60010,2470.567,2021-5-17T09:16:25Z
2021-05-17T07:18:17Z,42.805,6.029,13.2986,4.60009,2470.577,2021-5-17T09:19:28Z
2021-05-17T07:21:20Z,42.805,6.029,13.2989,4.60004,2470.553,2021-5-17T09:22:31Z
2021-05-17T07:24:23Z,42.805,6.029,13.2988,4.60003,2470.577,2021-5-17T09:25:34Z
2021-05-17T07:27:26Z,42.805,6.029,13.2988,4.60005,2470.591,2021-5-17T09:28:37Z
2021-05-17T07:30:29Z,42.805,6.029,13.2983,4.59999,2470.6,2021-5-17T09:31:41Z
2021-05-17T07:33:33Z,42.805,6.029,13.2983,4.60002,2470.53,2021-5-17T09:34:44Z
2021-05-17T07:36:36Z,42.805,6.029,13.2986,4.60003,2470.6,2021-5-17T09:37:47Z
2021-05-17T07:39:39Z,42.805,6.029,13.2979,4.60000,2470.591,2021-5-17T09:40:50Z
2021-05-17T07:42:42Z,42.805,6.029,13.2986,4.59997,2470.563,2021-5-17T09:43:53Z
2021-05-17T07:45:45Z,42.805,6.029,13.2988,4.60001,2470.553,2021-5-17T09:46:56Z
2021-05-17T07:48:48Z,42.805,6.029,13.2986,4.60002,2470.577,2021-5-17T09:49:59Z
2021-05-17T07:51:51Z,42.805,6.029,13.2986,4.60004,2470.624,2021-5-17T09:53:02Z
2021-05-17T07:54:54Z,42.805,6.029,13.2993,4.60011,2470.577,2021-5-17T09:56:06Z
2021-05-17T07:57:57Z,42.805,6.029,13.2985,4.60002,2470.6,2021-5-17T09:59:09Z
2021-05-17T08:01:01Z,42.805,6.029,13.2991,4.60000,2470.6,2021-5-17T10:02:12Z
2021-05-17T08:04:04Z,42.805,6.029,13.2990,4.60009,2470.637,2021-5-17T10:05:15Z
2021-05-17T08:07:07Z,42.805,6.029,13.2986,4.60003,2470.591,2021-5-17T10:08:18Z
2021-05-17T08:10:10Z,42.805,6.029,13.2982,4.59999,2470.591,2021-5-17T10:11:21Z
2021-05-17T08:13:13Z,42.805,6.029,13.2988,4.60008,2470.577,2021-5-17T10:14:24Z
2021-05-17T08:16:16Z,42.805,6.029,13.2984,4.59999,2470.624,2021-5-17T10:17:27Z
2021-05-17T08:19:19Z,42.805,6.029,13.2985,4.60001,2470.637,2021-5-17T10:20:31Z
2021-05-17T08:22:23Z,42.805,6.029,13.2987,4.59999,2470.577,2021-5-17T10:23:34Z
2021-05-17T08:25:26Z,42.805,6.029,13.2990,4.59999,2470.6,2021-5-17T10:26:37Z
2021-05-17T08:28:29Z,42.805,6.029,13.2987,4.60003,2470.6,2021-5-17T10:29:40Z
2021-05-17T08:31:32Z,42.805,6.029,13.2988,4.60008,2470.577,2021-5-17T10:32:43Z
2021-05-17T08:34:35Z,42.805,6.029,13.2987,4.59998,2470.577,2021-5-17T10:35:46Z
2021-05-17T08:37:38Z,42.805,6.029,13.2989,4.60003,2470.637,2021-5-17T10:38:49Z
2021-05-17T08:40:41Z,42.805,6.029,13.2985,4.60006,2470.614,2021-5-17T10:41:52Z
2021-05-17T08:43:44Z,42.805,6.029,13.2988,4.60003,2470.6,2021-5-17T10:44:56Z
2021-05-17T08:46:48Z,42.805,6.029,13.2986,4.60004,2470.577,2021-5-17T10:47:59Z
2021-05-17T08:49:51Z,42.805,6.029,13.2988,4.60009,2470.577,2021-5-17T10:51:02Z
2021-05-17T08:52:54Z,42.805,6.029,13.2988,4.60008,2470.614,2021-5-17T10:54:05Z
2021-05-17T08:55:57Z,42.805,6.029,13.2986,4.60003,2470.624,2021-5-17T10:57:08Z
2021-05-17T08:59:00Z,42.805,6.029,13.2986,4.60005,2470.624,2021-5-17T11:00:11Z
2021-05-17T09:02:03Z,42.805,6.029,13.2984,4.60009,2470.6,2021-5-17T11:03:14Z
2021-05-17T09:05:06Z,42.805,6.029,13.2989,4.60010,2470.637,2021-5-17T11:06:17Z
2021-05-17T09:08:09Z,42.805,6.029,13.2985,4.60014,2470.6,2021-5-17T11:09:21Z
2021-05-17T09:11:13Z,42.805,6.029,13.2990,4.60009,2470.553,2021-5-17T11:12:24Z
2021-05-17T09:14:16Z,42.805,6.029,13.2988,4.60003,2470.6,2021-5-17T11:15:27Z
2021-05-17T09:17:19Z,42.805,6.029,13.2991,4.60001,2470.637,2021-5-17T11:18:30Z
2021-05-17T09:20:22Z,42.805,6.029,13.2986,4.60007,2470.624,2021-5-17T11:21:33Z
2021-05-17T09:23:25Z,42.805,6.029,13.2998,4.60016,2470.6,2021-5-17T11:24:36Z
2021-05-17T09:26:28Z,42.805,6.029,13.2990,4.60007,2470.637,2021-5-17T11:27:39Z
2021-05-17T09:29:31Z,42.805,6.029,13.2986,4.60003,2470.6,2021-5-17T11:30:42Z
2021-05-17T09:32:34Z,42.805,6.029,13.2990,4.60011,2470.614,2021-5-17T11:33:46Z
2021-05-17T09:35:38Z,42.805,6.029,13.2985,4.60015,2470.614,2021-5-17T11:36:49Z
2021-05-17T09:38:41Z,42.805,6.029,13.2992,4.60006,2470.6,2021-5-17T11:39:52Z
2021-05-17T09:41:44Z,42.805,6.029,13.2986,4.59999,2470.624,2021-5-17T11:42:55Z
2021-05-17T09:44:47Z,42.805,6.029,13.2991,4.60001,2470.614,2021-5-17T11:45:58Z
2021-05-17T09:47:50Z,42.805,6.029,13.2988,4.60004,2470.614,2021-5-17T11:49:01Z
2021-05-17T09:50:53Z,42.805,6.029,13.2983,4.59994,2470.577,2021-5-17T11:52:04Z
2021-05-17T09:53:56Z,42.805,6.029,13.2987,4.60004,2470.6,2021-5-17T11:55:08Z
2021-05-17T09:56:59Z,42.805,6.029,13.2990,4.60010,2470.614,2021-5-17T11:58:11Z
2021-05-17T10:00:03Z,42.805,6.029,13.2989,4.60004,2470.577,2021-5-17T12:01:14Z
2021-05-17T10:03:06Z,42.805,6.029,13.2985,4.60001,2470.6,2021-5-17T12:04:17Z
2021-05-17T10:06:09Z,42.805,6.029,13.2985,4.60006,2470.624,2021-5-17T12:07:20Z
2021-05-17T10:09:12Z,42.805,6.029,13.2988,4.60009,2470.577,2021-5-17T12:10:23Z
2021-05-17T10:12:15Z,42.805,6.029,13.2993,4.60004,2470.6,2021-5-17T12:13:26Z
2021-05-17T10:15:18Z,42.805,6.029,13.2991,4.60013,2470.577,2021-5-17T12:16:29Z
2021-05-17T10:18:21Z,42.805,6.029,13.2990,4.60011,2470.591,2021-5-17T12:19:33Z
2021-05-17T10:21:25Z,42.805,6.029,13.2989,4.60009,2470.6,2021-5-17T12:22:36Z
2021-05-17T10:24:28Z,42.805,6.029,13.2990,4.60009,2470.577,2021-5-17T12:25:39Z
2021-05-17T10:27:31Z,42.805,6.029,13.2986,4.60007,2470.591,2021-5-17T12:28:42Z
2021-05-17T10:30:34Z,42.805,6.029,13.2986,4.59994,2470.591,2021-5-17T12:31:45Z
2021-05-17T10:33:37Z,42.805,6.029,13.2991,4.60011,2470.577,2021-5-17T12:34:48Z
2021-05-17T10:36:40Z,42.805,6.029,13.2989,4.60014,2470.6,2021-5-17T12:37:51Z
2021-05-17T10:39:43Z,42.805,6.029,13.2990,4.60014,2470.577,2021-5-17T12:40:54Z
2021-05-17T10:42:46Z,42.805,6.029,13.2987,4.60007,2470.577,2021-5-17T12:43:58Z
2021-05-17T10:45:50Z,42.805,6.029,13.2992,4.60014,2470.624,2021-5-17T12:47:01Z
2021-05-17T10:48:53Z,42.805,6.029,13.2982,4.60006,2470.577,2021-5-17T12:50:04Z
2021-05-17T10:51:56Z,42.805,6.029,13.2990,4.60011,2470.591,2021-5-17T12:53:07Z
2021-05-17T10:54:59Z,42.805,6.029,13.2991,4.60012,2470.6,2021-5-17T12:56:10Z
2021-05-17T10:58:02Z,42.805,6.029,13.2988,4.60004,2470.591,2021-5-17T12:59:13Z
2021-05-17T11:01:05Z,42.805,6.029,13.2990,4.60006,2470.567,2021-5-17T13:02:16Z
2021-05-17T11:04:08Z,42.805,6.029,13.2991,4.60019,2470.6,2021-5-17T13:05:20Z
2021-05-17T11:07:11Z,42.805,6.029,13.2988,4.60009,2470.553,2021-5-17T13:08:23Z
2021-05-17T11:10:15Z,42.805,6.029,13.2988,4.60013,2470.577,2021-5-17T13:11:26Z
2021-05-17T11:13:18Z,42.805,6.029,13.2993,4.60020,2470.591,2021-5-17T13:14:29Z
2021-05-17T11:16:21Z,42.805,6.029,13.2990,4.60011,2470.553,2021-5-17T13:17:32Z
2021-05-17T11:19:24Z,42.805,6.029,13.2990,4.60021,2470.6,2021-5-17T13:20:35Z
2021-05-17T11:22:27Z,42.805,6.029,13.2988,4.60009,2470.577,2021-5-17T13:23:38Z
2021-05-17T11:25:30Z,42.805,6.029,13.2985,4.60006,2470.591,2021-5-17T13:26:41Z
2021-05-17T11:28:33Z,42.805,6.029,13.2990,4.60004,2470.567,2021-5-17T13:29:45Z
2021-05-17T11:31:36Z,42.805,6.029,13.2986,4.60011,2470.591,2021-5-17T13:32:48Z
2021-05-17T11:34:40Z,42.805,6.029,13.2990,4.60019,2470.577,2021-5-17T13:35:51Z
2021-05-17T11:37:43Z,42.805,6.029,13.2985,4.60005,2470.577,2021-5-17T13:38:54Z
2021-05-17T11:40:46Z,42.805,6.029,13.2985,4.60007,2470.6,2021-5-17T13:41:57Z
2021-05-17T11:43:49Z,42.805,6.029,13.2991,4.60009,2470.567,2021-5-17T13:45:00Z
2021-05-17T11:46:52Z,42.805,6.029,13.2993,4.60013,2470.567,2021-5-17T13:48:03Z
2021-05-17T11:49:55Z,42.805,6.029,13.2982,4.60016,2470.577,2021-5-17T13:51:06Z
2021-05-17T11:52:58Z,42.805,6.029,13.2990,4.60019,2470.553,2021-5-17T13:54:10Z
2021-05-17T11:56:02Z,42.805,6.029,13.2986,4.60015,2470.591,2021-5-17T13:57:13Z
2021-05-17T11:59:05Z,42.805,6.029,13.2986,4.60005,2470.544,2021-5-17T14:00:16Z
2021-05-17T12:02:08Z,42.805,6.029,13.2999,4.60021,2470.577,2021-5-17T14:03:19Z
2021-05-17T12:05:11Z,42.805,6.029,13.2996,4.60023,2470.591,2021-5-17T14:06:22Z
2021-05-17T12:08:14Z,42.805,6.029,13.2993,4.60017,2470.577,2021-5-17T14:09:25Z
2021-05-17T12:11:17Z,42.805,6.029,13.2990,4.60001,2470.567,2021-5-17T14:12:28Z
2021-05-17T12:14:20Z,42.805,6.029,13.2992,4.60010,2470.553,2021-5-17T14:15:31Z
2021-05-17T12:17:23Z,42.805,6.029,13.2993,4.60013,2470.567,2021-5-17T14:18:35Z
2021-05-17T12:20:27Z,42.805,6.029,13.2984,4.60016,2470.567,2021-5-17T14:21:38Z
2021-05-17T12:23:30Z,42.805,6.029,13.2990,4.60017,2470.577,2021-5-17T14:24:41Z
2021-05-17T12:26:33Z,42.805,6.029,13.2988,4.60003,2470.567,2021-5-17T14:27:44Z
2021-05-17T12:29:36Z,42.805,6.029,13.2990,4.60017,2470.544,2021-5-17T14:30:47Z
2021-05-17T12:32:39Z,42.805,6.029,13.2986,4.60010,2470.577,2021-5-17T14:33:50Z
2021-05-17T12:35:42Z,42.805,6.029,13.3001,4.60015,2470.577,2021-5-17T14:36:53Z
2021-05-17T12:38:45Z,42.805,6.029,13.2991,4.60013,2470.53,2021-5-17T14:39:56Z
2021-05-17T12:41:48Z,42.805,6.029,13.2986,4.60015,2470.483,2021-5-17T14:43:00Z
2021-05-17T12:44:52Z,42.805,6.029,13.2993,4.60011,2470.539,2021-5-17T14:46:03Z
2021-05-17T12:47:55Z,42.805,6.029,13.2994,4.60009,2470.544,2021-5-17T14:49:06Z
2021-05-17T12:50:58Z,42.805,6.029,13.2986,4.59999,2470.53,2021-5-17T14:52:09Z
2021-05-17T12:54:01Z,42.805,6.029,13.2991,4.60017,2470.567,2021-5-17T14:55:12Z
2021-05-17T12:57:04Z,42.805,6.029,13.2992,4.60010,2470.553,2021-5-17T14:58:15Z
2021-05-17T13:00:07Z,42.805,6.029,13.2990,4.60008,2470.553,2021-5-17T15:01:18Z
2021-05-17T13:03:10Z,42.805,6.029,13.2992,4.60021,2470.52,2021-5-17T15:04:21Z
2021-05-17T13:06:13Z,42.805,6.029,13.2990,4.60007,2470.507,2021-5-17T15:07:25Z
2021-05-17T13:09:17Z,42.805,6.029,13.2986,4.60011,2470.567,2021-5-17T15:10:28Z
2021-05-17T13:12:20Z,42.805,6.029,13.2993,4.60009,2470.507,2021-5-17T15:13:31Z
2021-05-17T13:15:23Z,42.805,6.029,13.2996,4.60016,2470.52,2021-5-17T15:16:34Z
2021-05-17T13:18:26Z,42.805,6.029,13.2991,4.60006,2470.567,2021-5-17T15:19:37Z
2021-05-17T13:21:29Z,42.805,6.029,13.2994,4.60020,2470.53,2021-5-17T15:22:40Z
2021-05-17T13:24:32Z,42.805,6.029,13.2986,4.60001,2470.53,2021-5-17T15:25:43Z
2021-05-17T13:27:35Z,42.805,6.029,13.2990,4.60005,2470.577,2021-5-17T15:28:47Z
2021-05-17T13:30:38Z,42.805,6.029,13.2990,4.60003,2470.553,2021-5-17T15:31:50Z
2021-05-17T13:33:42Z,42.805,6.029,13.2993,4.60001,2470.544,2021-5-17T15:34:53Z
2021-05-17T13:36:45Z,42.805,6.029,13.2987,4.60006,2470.544,2021-5-17T15:37:56Z
2021-05-17T13:39:48Z,42.805,6.029,13.2988,4.60006,2470.544,2021-5-17T15:40:59Z
2021-05-17T13:42:51Z,42.805,6.029,13.2994,4.60011,2470.544,2021-5-17T15:44:02Z
2021-05-17T13:45:54Z,42.805,6.029,13.2992,4.60008,2470.544,2021-5-17T15:47:05Z
2021-05-17T13:48:57Z,42.805,6.029,13.2996,4.60016,2470.544,2021-5-17T15:50:08Z
2021-05-17T13:52:00Z,42.805,6.029,13.2987,4.60008,2470.507,2021-5-17T15:53:12Z
2021-05-17T13:55:03Z,42.805,6.029,13.2990,4.60009,2470.553,2021-5-17T15:56:15Z
2021-05-17T13:58:07Z,42.805,6.029,13.2988,4.60003,2470.553,2021-5-17T15:59:18Z
2021-05-17T14:01:10Z,42.805,6.029,13.2989,4.60005,2470.52,2021-5-17T16:02:21Z
2021-05-17T14:04:13Z,42.805,6.029,13.2991,4.60013,2470.497,2021-5-17T16:05:24Z
2021-05-17T14:07:16Z,42.805,6.029,13.2996,4.59999,2470.497,2021-5-17T16:08:27Z
2021-05-17T14:10:19Z,42.805,6.029,13.2992,4.60014,2470.544,2021-5-17T16:11:30Z
2021-05-17T14:13:22Z,42.805,6.029,13.2991,4.60011,2470.544,2021-5-17T16:14:33Z
2021-05-17T14:16:25Z,42.805,6.029,13.2990,4.60004,2470.53,2021-5-17T16:17:37Z
2021-05-17T14:19:29Z,42.805,6.029,13.2990,4.60016,2470.567,2021-5-17T16:20:40Z
2021-05-17T14:22:32Z,42.805,6.029,13.2993,4.60016,2470.483,2021-5-17T16:23:43Z
2021-05-17T14:25:35Z,42.805,6.029,13.2997,4.60012,2470.507,2021-5-17T16:26:46Z
2021-05-17T14:28:38Z,42.805,6.029,13.2989,4.60005,2470.53,2021-5-17T16:29:49Z
2021-05-17T14:31:41Z,42.805,6.029,13.2996,4.60012,2470.53,2021-5-17T16:32:52Z
2021-05-17T14:34:44Z,42.805,6.029,13.2987,4.60008,2470.507,2021-5-17T16:35:55Z
2021-05-17T14:37:47Z,42.805,6.029,13.2993,4.60009,2470.507,2021-5-17T16:38:58Z
2021-05-17T14:40:50Z,42.805,6.029,13.2990,4.60009,2470.544,2021-5-17T16:42:02Z
2021-05-17T14:43:54Z,42.805,6.029,13.2996,4.60014,2470.544,2021-5-17T16:45:05Z
2021-05-17T14:46:57Z,42.805,6.029,13.2993,4.60021,2470.553,2021-5-17T16:48:08Z
2021-05-17T14:50:00Z,42.805,6.029,13.2993,4.60016,2470.497,2021-5-17T16:51:11Z
2021-05-17T14:53:03Z,42.805,6.029,13.2991,4.60011,2470.483,2021-5-17T16:54:14Z
2021-05-17T14:56:06Z,42.805,6.029,13.2992,4.60014,2470.483,2021-5-17T16:57:17Z
2021-05-17T14:59:09Z,42.805,6.029,13.2991,4.60009,2470.497,2021-5-17T17:00:20Z
2021-05-17T15:02:12Z,42.805,6.029,13.2990,4.60002,2470.52,2021-5-17T17:03:23Z
2021-05-17T15:05:15Z,42.805,6.029,13.2993,4.60011,2470.483,2021-5-17T17:06:27Z
2021-05-17T15:08:19Z,42.805,6.029,13.2994,4.60007,2470.507,2021-5-17T17:09:30Z
2021-05-17T15:11:22Z,42.805,6.029,13.2992,4.60008,2470.483,2021-5-17T17:12:33Z
2021-05-17T15:14:25Z,42.805,6.029,13.2992,4.60014,2470.483,2021-5-17T17:15:36Z